ANZ28 NZAA-KIAH

Flight info

Callsign ANZ28
Flight time N/A
Altitude 31000
Route OLBEX DCT 35S180E 31S170W 28S165W 25S160W/N0494F330 DCT SOSPI DCT 22S155W 19S150W DCT ISTAM DCT 15S145W 11S140W 10S139W 05S135W 00N131W/N0489F350 0330N12854W 05N128W 10N125W 15N120W 20N110W/N0482F370 2019N10938W DCT MZT UJ20 NOTAK DCT YEEHA TEJAS5
Aircraft B77W/H-SDE1E2E3FGHIJ2J3J4J5M1RWXY/LB1D1

Departure

Time N/A
Airport Auckland International Airport (NZAA)

Arrival

Time 2025-09-08 03:32
Airport George Bush Intercontinental Airport (KIAH)
Time Latitude Longitude Altitude Speed Heading
2025-09-07 15:10 -33.58787 -176.12615 30986 ft 472 kts 53°
2025-09-07 15:11 -33.56024 -176.05477 30990 ft 471 kts 53°
2025-09-07 15:12 -33.46389 -175.80699 30979 ft 471 kts 53°
2025-09-07 15:15 -33.33895 -175.48833 30963 ft 471 kts 52°
2025-09-07 15:16 -33.24121 -175.24107 30953 ft 470 kts 51°
2025-09-07 15:18 -33.12897 -174.95957 30941 ft 480 kts 51°
2025-09-07 15:20 -33.01373 -174.67236 30923 ft 477 kts 51°
2025-09-07 15:23 -32.88303 -174.35004 30913 ft 486 kts 52°
2025-09-07 15:24 -32.77920 -174.09598 30911 ft 492 kts 54°
2025-09-07 15:27 -32.64388 -173.76745 30885 ft 494 kts 54°
2025-09-07 15:28 -32.53736 -173.51108 30843 ft 496 kts 54°
2025-09-07 15:30 -32.41322 -173.21463 30874 ft 500 kts 55°
2025-09-07 15:32 -32.28880 -172.91998 30895 ft 506 kts 55°
2025-09-07 15:34 -32.16221 -172.62267 30910 ft 511 kts 55°
2025-09-07 15:36 -32.03321 -172.32207 30921 ft 514 kts 54°
2025-09-07 15:39 -31.89293 -171.99810 30938 ft 514 kts 54°
2025-09-07 15:40 -31.77881 -171.73662 30954 ft 513 kts 54°
2025-09-07 15:42 -31.64776 -171.43874 30971 ft 514 kts 54°
2025-09-07 15:44 -31.51549 -171.14041 30988 ft 516 kts 54°
2025-09-07 15:46 -31.38288 -170.84373 30996 ft 516 kts 54°
2025-09-07 15:48 -31.24819 -170.54482 31010 ft 521 kts 54°
2025-09-07 15:50 -31.11244 -170.24588 31023 ft 522 kts 54°
2025-09-07 15:52 -30.97306 -169.95038 31052 ft 517 kts 49°
2025-09-07 15:54 -30.81363 -169.67102 31040 ft 519 kts 50°
2025-09-07 15:56 -30.65359 -169.39036 31050 ft 522 kts 49°
2025-09-07 15:58 -30.49209 -169.10923 31059 ft 524 kts 49°
2025-09-07 16:00 -30.33139 -168.83145 31085 ft 519 kts 50°
2025-09-07 16:03 -30.14950 -168.51938 31083 ft 521 kts 50°
2025-09-07 16:04 -30.00737 -168.27717 31094 ft 522 kts 50°
2025-09-07 16:06 -29.84421 -168.00090 31098 ft 521 kts 50°
2025-09-07 16:08 -29.68179 -167.72774 31114 ft 518 kts 50°
2025-09-07 16:10 -29.51807 -167.45425 31132 ft 520 kts 50°
2025-09-07 16:12 -29.35324 -167.18070 31144 ft 522 kts 50°
2025-09-07 16:15 -29.16764 -166.87485 31150 ft 522 kts 49°
2025-09-07 16:16 -29.02202 -166.63644 31180 ft 523 kts 50°
2025-09-07 16:18 -28.85479 -166.36431 31185 ft 523 kts 49°
2025-09-07 16:20 -28.68695 -166.09299 31200 ft 525 kts 49°
2025-09-07 16:22 -28.51819 -165.82189 31202 ft 528 kts 49°
2025-09-07 16:24 -28.35486 -165.56118 31220 ft 530 kts 49°
2025-09-07 16:26 -28.18312 -165.28869 31231 ft 530 kts 49°
2025-09-07 16:28 -28.01107 -165.01741 31233 ft 530 kts 49°
2025-09-07 16:31 -27.83032 -164.70176 32586 ft 537 kts 52°
2025-09-07 16:32 -27.68770 -164.45276 33255 ft 539 kts 51°
2025-09-07 16:34 -27.52488 -164.17012 33271 ft 540 kts 51°
2025-09-07 16:37 -27.33965 -163.85074 33271 ft 546 kts 51°
2025-09-07 16:38 -27.19371 -163.60071 33254 ft 546 kts 52°
2025-09-07 16:41 -27.00587 -163.28100 33248 ft 545 kts 52°
2025-09-07 16:42 -26.92225 -163.13943 33278 ft 546 kts 52°
2025-09-07 16:44 -26.69174 -162.75142 33271 ft 547 kts 52°
2025-09-07 16:46 -26.56501 -162.53951 33270 ft 546 kts 52°
2025-09-07 16:49 -26.33202 -162.15251 33252 ft 546 kts 52°
2025-09-07 16:50 -26.18434 -161.90888 33271 ft 544 kts 51°
2025-09-07 16:52 -26.03565 -161.66492 33277 ft 545 kts 52°
2025-09-07 16:55 -25.80045 -161.28161 33283 ft 548 kts 52°
2025-09-07 16:56 -25.67163 -161.07300 33284 ft 548 kts 52°
2025-09-07 16:59 -25.45653 -160.72676 33299 ft 549 kts 52°
2025-09-07 17:01 -25.30401 -160.48273 33293 ft 553 kts 52°
2025-09-07 17:03 -25.10659 -160.16874 33297 ft 553 kts 52°
2025-09-07 17:05 -24.95239 -159.92709 33302 ft 554 kts 50°
2025-09-07 17:07 -24.74628 -159.61843 33300 ft 558 kts 50°
2025-09-07 17:09 -24.58521 -159.37763 33299 ft 559 kts 51°
2025-09-07 17:11 -24.38465 -159.07948 33300 ft 561 kts 51°
2025-09-07 17:13 -24.22231 -158.83946 33291 ft 563 kts 51°
2025-09-07 17:15 -24.01179 -158.52994 33294 ft 563 kts 51°
2025-09-07 17:16 -23.87089 -158.32385 33291 ft 565 kts 51°
2025-09-07 17:19 -23.63554 -157.98150 33295 ft 566 kts 51°
2025-09-07 17:21 -23.46966 -157.74160 33285 ft 565 kts 51°
2025-09-07 17:23 -23.25635 -157.43474 33273 ft 565 kts 51°
2025-09-07 17:25 -23.09009 -157.19683 33278 ft 567 kts 51°
2025-09-07 17:27 -22.91119 -156.91576 33272 ft 572 kts 64°
2025-09-07 17:28 -22.78618 -156.64583 33265 ft 573 kts 63°
2025-09-07 17:31 -22.62302 -156.29999 33265 ft 573 kts 64°
2025-09-07 17:33 -22.47814 -155.99472 33253 ft 574 kts 64°
2025-09-07 17:35 -22.33155 -155.68772 33255 ft 576 kts 64°
2025-09-07 17:37 -22.18384 -155.38022 33247 ft 578 kts 64°
2025-09-07 17:39 -22.03508 -155.07236 33240 ft 579 kts 64°
2025-09-07 17:41 -21.87063 -154.77514 33240 ft 582 kts 59°
2025-09-07 17:43 -21.69963 -154.47905 33230 ft 582 kts 59°
2025-09-07 17:45 -21.52829 -154.18407 33225 ft 581 kts 58°
2025-09-07 17:47 -21.35735 -153.89132 33222 ft 584 kts 59°
2025-09-07 17:49 -21.18380 -153.59569 33212 ft 586 kts 58°
2025-09-07 17:51 -21.01018 -153.30152 33200 ft 584 kts 59°
2025-09-07 17:53 -20.83591 -153.00776 33198 ft 586 kts 59°
2025-09-07 17:55 -20.66174 -152.71570 33191 ft 584 kts 58°
2025-09-07 17:57 -20.48687 -152.42396 33184 ft 583 kts 58°
2025-09-07 17:59 -20.31911 -152.14545 33164 ft 581 kts 58°
2025-09-07 18:01 -20.14539 -151.85847 33161 ft 578 kts 58°
2025-09-07 18:03 -19.97068 -151.57124 33130 ft 579 kts 58°
2025-09-07 18:05 -19.79549 -151.28463 33149 ft 578 kts 58°
2025-09-07 18:07 -19.62071 -151.00006 33138 ft 575 kts 57°
2025-09-07 18:09 -19.44659 -150.71788 33119 ft 573 kts 57°
2025-09-07 18:11 -19.27210 -150.43642 33120 ft 571 kts 57°
2025-09-07 18:12 -19.11957 -150.19143 33094 ft 569 kts 57°
2025-09-07 18:15 -18.92066 -149.88287 33110 ft 566 kts 52°
2025-09-07 18:17 -18.73509 -149.61487 33093 ft 565 kts 53°
2025-09-07 18:19 -18.55002 -149.34710 33089 ft 564 kts 53°
2025-09-07 18:21 -18.36465 -149.08003 33075 ft 564 kts 52°
2025-09-07 18:23 -18.18106 -148.81662 33061 ft 558 kts 52°
2025-09-07 18:25 -17.99718 -148.55388 33080 ft 559 kts 52°
2025-09-07 18:27 -17.81316 -148.29196 33064 ft 554 kts 51°
2025-09-07 18:29 -17.63026 -148.03267 33074 ft 552 kts 51°
2025-09-07 18:31 -17.44832 -147.77573 33072 ft 550 kts 51°
2025-09-07 18:33 -17.26561 -147.51988 33066 ft 545 kts 46°
2025-09-07 18:35 -17.06055 -147.28887 33066 ft 540 kts 43°
2025-09-07 18:37 -16.85715 -147.05943 33073 ft 537 kts 43°
2025-09-07 18:39 -16.65523 -146.83258 33074 ft 535 kts 43°
2025-09-07 18:41 -16.45312 -146.60626 33076 ft 532 kts 43°
2025-09-07 18:43 -16.26034 -146.39106 33071 ft 529 kts 42°
2025-09-07 18:45 -16.05955 -146.16765 33057 ft 528 kts 42°
2025-09-07 18:47 -15.86045 -145.94680 33068 ft 527 kts 42°
2025-09-07 18:49 -15.65969 -145.72480 33077 ft 526 kts 42°
2025-09-07 18:51 -15.46016 -145.50484 33077 ft 523 kts 42°
2025-09-07 18:52 -15.28598 -145.31337 33062 ft 520 kts 42°
2025-09-07 18:55 -15.06267 -145.06858 33068 ft 520 kts 42°
2025-09-07 18:56 -14.89883 -144.87032 33076 ft 521 kts 47°
2025-09-07 18:59 -14.69530 -144.60875 33074 ft 517 kts 47°
2025-09-07 19:00 -14.53748 -144.40681 33077 ft 515 kts 47°
2025-09-07 19:03 -14.33472 -144.14813 33074 ft 516 kts 47°
2025-09-07 19:04 -14.17737 -143.94793 33072 ft 514 kts 47°
2025-09-07 19:07 -13.97557 -143.69190 33070 ft 511 kts 47°
2025-09-07 19:08 -13.81856 -143.49325 33071 ft 511 kts 47°
2025-09-07 19:11 -13.61678 -143.23863 33090 ft 510 kts 47°
2025-09-07 19:12 -13.46003 -143.04137 33082 ft 508 kts 47°
2025-09-07 19:15 -13.25994 -142.79020 33078 ft 507 kts 47°
2025-09-07 19:16 -13.10353 -142.59438 33069 ft 507 kts 47°
2025-09-07 19:19 -12.90228 -142.34305 33078 ft 507 kts 47°
2025-09-07 19:20 -12.74552 -142.14776 33070 ft 506 kts 47°
2025-09-07 19:23 -12.54544 -141.89911 33069 ft 503 kts 47°
2025-09-07 19:24 -12.38962 -141.70595 33066 ft 503 kts 47°
2025-09-07 19:27 -12.18881 -141.45758 33070 ft 503 kts 47°
2025-09-07 19:28 -12.03273 -141.26498 33064 ft 502 kts 48°
2025-09-07 19:31 -11.83315 -141.01928 33068 ft 500 kts 47°
2025-09-07 19:32 -11.68573 -140.83819 33068 ft 501 kts 48°
2025-09-07 19:35 -11.48546 -140.59268 33065 ft 500 kts 48°
2025-09-07 19:37 -11.30758 -140.37515 33066 ft 499 kts 48°
2025-09-07 19:39 -11.12999 -140.15841 33069 ft 497 kts 48°
2025-09-07 19:40 -10.97379 -139.97251 33069 ft 494 kts 43°
2025-09-07 19:43 -10.75313 -139.75234 33065 ft 494 kts 43°
2025-09-07 19:45 -10.55738 -139.55627 33070 ft 494 kts 43°
2025-09-07 19:47 -10.36133 -139.36031 33064 ft 495 kts 43°
2025-09-07 19:48 -10.18923 -139.18856 33071 ft 496 kts 43°
2025-09-07 19:51 -9.96597 -138.97124 33069 ft 495 kts 37°
2025-09-07 19:52 -9.77711 -138.81897 33065 ft 496 kts 37°
2025-09-07 19:54 -9.56175 -138.64417 33066 ft 496 kts 37°
2025-09-07 19:57 -9.32013 -138.44845 33052 ft 494 kts 37°
2025-09-07 19:59 -9.10614 -138.27544 33058 ft 490 kts 37°
2025-09-07 20:01 -8.89307 -138.10344 33059 ft 491 kts 37°
2025-09-07 20:03 -8.68030 -137.93192 33056 ft 493 kts 37°
2025-09-07 20:05 -8.43849 -137.73732 33059 ft 494 kts 38°
2025-09-07 20:07 -8.24978 -137.58567 33299 ft 497 kts 37°
2025-09-07 20:09 -8.03294 -137.41164 35017 ft 499 kts 37°
2025-09-07 20:11 -7.81752 -137.23901 35068 ft 496 kts 37°
2025-09-07 20:12 -7.62716 -137.08663 35035 ft 494 kts 37°
2025-09-07 20:15 -7.38360 -136.89195 35059 ft 495 kts 37°
2025-09-07 20:17 -7.13941 -136.69707 35033 ft 501 kts 37°
2025-09-07 20:19 -6.95029 -136.54630 35060 ft 498 kts 37°
2025-09-07 20:21 -6.71457 -136.35861 35056 ft 497 kts 37°
2025-09-07 20:23 -6.52586 -136.20853 35049 ft 495 kts 37°
2025-09-07 20:24 -6.33677 -136.05829 35060 ft 495 kts 36°
2025-09-07 20:27 -6.09481 -135.86627 35030 ft 494 kts 37°
2025-09-07 20:29 -5.85232 -135.67404 35049 ft 495 kts 36°
2025-09-07 20:31 -5.66311 -135.52420 35048 ft 495 kts 36°
2025-09-07 20:33 -5.41958 -135.33153 35042 ft 497 kts 37°
2025-09-07 20:35 -5.23011 -135.18178 35047 ft 494 kts 37°
2025-09-07 20:36 -5.04233 -135.03344 35041 ft 489 kts 36°
2025-09-07 20:39 -4.80494 -134.84304 35045 ft 487 kts 37°
2025-09-07 20:41 -4.56599 -134.65085 35041 ft 491 kts 37°
2025-09-07 20:43 -4.37950 -134.50094 35034 ft 493 kts 37°
2025-09-07 20:44 -4.19238 -134.35064 35031 ft 492 kts 37°
2025-09-07 20:47 -3.95281 -134.15835 35028 ft 488 kts 38°
2025-09-07 20:48 -3.76855 -134.01055 35041 ft 483 kts 37°
2025-09-07 20:51 -3.53421 -133.82270 35045 ft 486 kts 37°
2025-09-07 20:52 -3.35159 -133.67640 35038 ft 478 kts 37°
2025-09-07 20:55 -3.11496 -133.48692 35030 ft 479 kts 38°
2025-09-07 20:56 -2.93320 -133.34148 35014 ft 480 kts 38°
2025-09-07 20:59 -2.69844 -133.15370 35016 ft 481 kts 38°
2025-09-07 21:01 -2.46383 -132.96614 35017 ft 480 kts 38°
2025-09-07 21:03 -2.28153 -132.82046 35011 ft 480 kts 38°
2025-09-07 21:04 -2.09874 -132.67444 35011 ft 484 kts 38°
2025-09-07 21:07 -1.86256 -132.48583 35013 ft 482 kts 38°
2025-09-07 21:08 -1.67921 -132.33946 35012 ft 479 kts 39°
2025-09-07 21:11 -1.45343 -132.15926 35035 ft 481 kts 39°
2025-09-07 21:12 -1.27044 -132.01324 35013 ft 480 kts 39°
2025-09-07 21:15 -1.03737 -131.82731 35014 ft 478 kts 39°
2025-09-07 21:16 -0.85543 -131.68219 35015 ft 478 kts 39°
2025-09-07 21:19 -0.62219 -131.49618 35013 ft 476 kts 40°
2025-09-07 21:21 -0.38908 -131.31030 35010 ft 476 kts 40°
2025-09-07 21:23 -0.20786 -131.16579 35010 ft 476 kts 40°
2025-09-07 21:25 -0.00146 -131.00163 35014 ft 474 kts 37°
2025-09-07 21:27 0.22094 -130.86774 35010 ft 475 kts 33°
2025-09-07 21:29 0.47530 -130.71531 35009 ft 474 kts 33°
2025-09-07 21:31 0.67329 -130.59667 35011 ft 475 kts 32°
2025-09-07 21:33 0.92867 -130.44363 35008 ft 475 kts 33°
2025-09-07 21:35 1.12673 -130.32493 35005 ft 473 kts 33°
2025-09-07 21:37 1.38051 -130.17279 35005 ft 472 kts 33°
2025-09-07 21:39 1.57738 -130.05475 34997 ft 472 kts 33°
2025-09-07 21:40 1.77364 -129.93705 34993 ft 473 kts 33°
2025-09-07 21:43 2.02731 -129.78487 34998 ft 473 kts 33°
2025-09-07 21:45 2.28113 -129.63254 34984 ft 472 kts 33°
2025-09-07 21:47 2.47818 -129.51424 34987 ft 472 kts 33°
2025-09-07 21:49 2.70291 -129.37927 34985 ft 472 kts 33°
2025-09-07 21:51 2.92820 -129.24391 34982 ft 472 kts 33°
2025-09-07 21:52 3.12540 -129.12537 34983 ft 473 kts 33°
2025-09-07 21:55 3.37806 -128.97341 34978 ft 473 kts 33°
2025-09-07 21:56 3.56597 -128.86049 34971 ft 473 kts 33°
2025-09-07 21:59 3.82003 -128.70837 34966 ft 473 kts 33°
2025-09-07 22:01 4.04565 -128.57313 34970 ft 473 kts 33°
2025-09-07 22:03 4.27112 -128.43790 34963 ft 473 kts 33°
2025-09-07 22:05 4.52539 -128.28528 34955 ft 474 kts 33°
2025-09-07 22:07 4.72363 -128.16619 34950 ft 475 kts 33°
2025-09-07 22:09 4.97879 -128.01278 34951 ft 475 kts 33°
2025-09-07 22:11 5.17632 -127.89549 34953 ft 475 kts 32°
2025-09-07 22:13 5.43224 -127.74361 34945 ft 475 kts 32°
2025-09-07 22:15 5.63134 -127.62534 34943 ft 475 kts 32°
2025-09-07 22:17 5.88696 -127.47336 34947 ft 475 kts 33°
2025-09-07 22:19 6.08597 -127.35492 34939 ft 476 kts 33°
2025-09-07 22:20 6.28699 -127.23518 34942 ft 482 kts 33°
2025-09-07 22:23 6.54646 -127.08048 34936 ft 480 kts 33°
2025-09-07 22:24 6.74680 -126.96086 34923 ft 484 kts 32°
2025-09-07 22:27 7.00349 -126.80747 34955 ft 484 kts 32°
2025-09-07 22:28 7.20634 -126.68613 34941 ft 485 kts 32°
2025-09-07 22:31 7.46430 -126.53161 34945 ft 479 kts 32°
2025-09-07 22:32 7.66656 -126.41031 34943 ft 484 kts 33°
2025-09-07 22:34 7.89568 -126.27273 34930 ft 479 kts 33°
2025-09-07 22:37 8.18409 -126.09929 34927 ft 487 kts 33°
2025-09-07 22:39 8.38605 -125.97768 34935 ft 484 kts 33°
2025-09-07 22:41 8.64609 -125.82085 34925 ft 485 kts 33°
2025-09-07 22:43 8.84936 -125.69809 34926 ft 487 kts 33°
2025-09-07 22:45 9.11136 -125.53963 34926 ft 488 kts 33°
2025-09-07 22:47 9.31490 -125.41633 34924 ft 487 kts 33°
2025-09-07 22:49 9.53739 -125.28136 34921 ft 487 kts 33°
2025-09-07 22:51 9.76964 -125.14024 34922 ft 487 kts 33°
2025-09-07 22:53 10.02587 -124.97622 34914 ft 482 kts 46°
2025-09-07 22:55 10.19452 -124.81045 34921 ft 483 kts 46°
2025-09-07 22:56 10.36375 -124.64532 34916 ft 481 kts 46°
2025-09-07 22:59 10.58043 -124.43341 34919 ft 480 kts 46°
2025-09-07 23:00 10.74875 -124.26850 34922 ft 480 kts 46°
2025-09-07 23:03 10.96533 -124.05591 34922 ft 481 kts 46°
2025-09-07 23:05 11.15663 -123.86776 34919 ft 480 kts 46°
2025-09-07 23:07 11.34793 -123.67924 34916 ft 479 kts 46°
2025-09-07 23:08 11.51557 -123.51374 34917 ft 480 kts 46°
2025-09-07 23:11 11.73131 -123.30031 34916 ft 480 kts 46°
2025-09-07 23:12 11.89882 -123.13427 34915 ft 479 kts 46°
2025-09-07 23:15 12.11249 -122.92202 34909 ft 478 kts 47°
2025-09-07 23:17 12.32683 -122.70861 34910 ft 478 kts 47°
2025-09-07 23:19 12.49331 -122.54250 34918 ft 478 kts 47°
2025-09-07 23:20 12.65979 -122.37607 34920 ft 478 kts 47°
2025-09-07 23:23 12.87340 -122.16205 34914 ft 477 kts 47°
2025-09-07 23:25 13.08561 -121.94890 34920 ft 477 kts 47°
2025-09-07 23:27 13.25149 -121.78190 34917 ft 477 kts 47°
2025-09-07 23:28 13.41713 -121.61482 34918 ft 477 kts 47°
2025-09-07 23:31 13.62955 -121.40004 34917 ft 477 kts 47°
2025-09-07 23:32 13.79482 -121.23254 34918 ft 476 kts 47°
2025-09-07 23:35 14.00704 -121.01694 34925 ft 477 kts 47°
2025-09-07 23:36 14.16332 -120.85779 34922 ft 477 kts 47°
2025-09-07 23:39 14.37566 -120.64102 34921 ft 478 kts 47°
2025-09-07 23:41 14.56432 -120.44791 34928 ft 478 kts 47°
2025-09-07 23:43 14.75310 -120.25418 34924 ft 478 kts 47°
2025-09-07 23:45 14.96503 -120.03608 34930 ft 478 kts 47°
2025-09-07 23:47 15.08787 -119.83697 34928 ft 473 kts 63°
2025-09-07 23:49 15.21531 -119.59864 34923 ft 473 kts 63°
2025-09-07 23:51 15.34246 -119.36058 34925 ft 474 kts 63°
2025-09-07 23:53 15.46994 -119.12112 35081 ft 478 kts 63°
2025-09-07 23:55 15.59620 -118.88320 36906 ft 472 kts 63°
2025-09-07 23:56 15.70576 -118.67612 36925 ft 466 kts 63°
2025-09-07 23:59 15.84672 -118.40878 36920 ft 473 kts 63°
2025-09-08 00:00 15.95739 -118.19822 36922 ft 474 kts 64°
2025-09-08 00:03 16.09828 -117.92924 36921 ft 472 kts 64°
2025-09-08 00:04 16.20770 -117.71963 36923 ft 472 kts 64°
2025-09-08 00:07 16.34850 -117.44899 36918 ft 473 kts 64°
2025-09-08 00:08 16.45795 -117.23789 36918 ft 473 kts 64°
2025-09-08 00:11 16.59777 -116.96724 36921 ft 475 kts 64°
2025-09-08 00:13 16.73847 -116.69380 36923 ft 476 kts 64°
2025-09-08 00:15 16.84781 -116.48057 36924 ft 476 kts 64°
2025-09-08 00:16 16.95658 -116.26776 36922 ft 475 kts 64°
2025-09-08 00:19 17.09543 -115.99510 36930 ft 474 kts 64°
2025-09-08 00:20 17.20365 -115.78180 36929 ft 474 kts 64°
2025-09-08 00:23 17.34254 -115.50706 36928 ft 475 kts 64°
2025-09-08 00:24 17.45024 -115.29322 36932 ft 474 kts 64°
2025-09-08 00:27 17.58325 -115.02813 36929 ft 475 kts 64°
2025-09-08 00:28 17.68979 -114.81499 36931 ft 473 kts 65°
2025-09-08 00:31 17.82686 -114.53976 36928 ft 473 kts 65°
2025-09-08 00:33 17.96360 -114.26395 36940 ft 474 kts 65°
2025-09-08 00:35 18.06985 -114.04884 36938 ft 474 kts 65°
2025-09-08 00:37 18.20515 -113.77381 36940 ft 472 kts 65°
2025-09-08 00:39 18.31013 -113.55956 36947 ft 470 kts 66°
2025-09-08 00:41 18.44423 -113.28480 36950 ft 468 kts 66°
2025-09-08 00:43 18.54785 -113.07162 36943 ft 467 kts 66°
2025-09-08 00:44 18.65056 -112.85958 36948 ft 466 kts 66°
2025-09-08 00:47 18.78274 -112.58561 36950 ft 465 kts 66°
2025-09-08 00:48 18.88482 -112.37316 36951 ft 464 kts 66°
2025-09-08 00:51 19.01580 -112.09942 36955 ft 464 kts 66°
2025-09-08 00:52 19.11689 -111.88731 36946 ft 464 kts 66°
2025-09-08 00:55 19.24758 -111.61191 36958 ft 465 kts 66°
2025-09-08 00:56 19.34880 -111.39772 36966 ft 464 kts 66°
2025-09-08 00:59 19.47803 -111.12306 36968 ft 464 kts 66°
2025-09-08 01:00 19.57791 -110.90992 36971 ft 464 kts 66°
2025-09-08 01:03 19.70667 -110.63393 36971 ft 464 kts 66°
2025-09-08 01:04 19.80658 -110.41883 36974 ft 465 kts 66°
2025-09-08 01:07 19.93509 -110.14092 36981 ft 467 kts 66°
2025-09-08 01:08 20.05334 -109.93700 36987 ft 471 kts 50°
2025-09-08 01:11 20.25326 -109.70701 36986 ft 470 kts 50°
2025-09-08 01:12 20.40137 -109.53617 36980 ft 470 kts 50°
2025-09-08 01:15 20.60162 -109.30594 36986 ft 471 kts 50°
2025-09-08 01:17 20.80161 -109.07490 36992 ft 472 kts 49°
2025-09-08 01:19 20.95678 -108.89497 36994 ft 473 kts 49°
2025-09-08 01:21 21.15686 -108.66210 36993 ft 470 kts 49°
2025-09-08 01:23 21.31116 -108.48182 36994 ft 468 kts 49°
2025-09-08 01:25 21.50913 -108.24963 36989 ft 469 kts 49°
2025-09-08 01:27 21.66324 -108.06818 36991 ft 470 kts 49°
2025-09-08 01:28 21.81652 -107.88709 36986 ft 472 kts 49°
2025-09-08 01:31 22.01625 -107.65019 36987 ft 477 kts 49°
2025-09-08 01:32 22.17126 -107.46562 36983 ft 473 kts 49°
2025-09-08 01:35 22.36952 -107.22853 36985 ft 474 kts 49°
2025-09-08 01:36 22.52380 -107.04330 36966 ft 475 kts 50°
2025-09-08 01:38 22.69916 -106.83195 36977 ft 473 kts 50°
2025-09-08 01:41 22.91826 -106.56663 36975 ft 473 kts 49°
2025-09-08 01:43 23.07187 -106.37977 36977 ft 475 kts 49°
2025-09-08 01:44 23.21250 -106.18127 36983 ft 474 kts 60°
2025-09-08 01:47 23.36637 -105.90668 37048 ft 478 kts 59°
2025-09-08 01:48 23.48771 -105.69012 37086 ft 478 kts 59°
2025-09-08 01:51 23.64316 -105.41265 37114 ft 476 kts 59°
2025-09-08 01:53 23.78090 -105.16493 37118 ft 478 kts 60°
2025-09-08 01:55 23.91698 -104.91868 37068 ft 476 kts 59°
2025-09-08 01:57 24.07105 -104.63833 37325 ft 481 kts 60°
2025-09-08 01:59 24.22434 -104.44900 37316 ft 482 kts 34°
2025-09-08 02:01 24.46325 -104.26736 37048 ft 484 kts 36°
2025-09-08 02:03 24.65613 -104.11829 37063 ft 484 kts 36°
2025-09-08 02:04 24.84723 -103.96974 37042 ft 483 kts 35°
2025-09-08 02:07 25.09379 -103.77715 37003 ft 484 kts 34°
2025-09-08 02:09 25.31401 -103.60452 37042 ft 486 kts 34°
2025-09-08 02:11 25.53431 -103.43130 37175 ft 487 kts 36°
2025-09-08 02:12 25.69102 -103.23434 37089 ft 489 kts 50°
2025-09-08 02:15 25.88286 -102.97094 37006 ft 490 kts 50°
2025-09-08 02:16 26.03236 -102.76505 37041 ft 491 kts 50°
2025-09-08 02:18 26.20427 -102.52708 37054 ft 495 kts 50°
2025-09-08 02:21 26.41936 -102.22757 37081 ft 495 kts 49°
2025-09-08 02:23 26.56978 -102.01690 37105 ft 496 kts 49°
2025-09-08 02:25 26.73946 -101.77797 37102 ft 493 kts 49°
2025-09-08 02:27 26.90907 -101.53774 37120 ft 491 kts 49°
2025-09-08 02:29 27.02200 -101.21654 37103 ft 501 kts 72°
2025-09-08 02:31 27.08950 -100.95426 37104 ft 505 kts 71°
2025-09-08 02:33 27.17669 -100.61327 37086 ft 503 kts 71°
2025-09-08 02:35 27.24406 -100.34942 37075 ft 502 kts 71°
2025-09-08 02:37 27.33345 -100.01064 37081 ft 500 kts 63°
2025-09-08 02:39 27.45453 -99.77786 37089 ft 497 kts 56°
2025-09-08 02:41 27.61318 -99.47603 37102 ft 498 kts 56°
2025-09-08 02:43 27.73641 -99.24016 37089 ft 499 kts 56°
2025-09-08 02:45 27.87646 -98.97050 37095 ft 502 kts 56°
2025-09-08 02:47 28.01114 -98.70954 37102 ft 502 kts 56°
2025-09-08 02:49 28.16889 -98.40185 37102 ft 504 kts 55°
2025-09-08 02:51 28.29211 -98.15991 37099 ft 508 kts 55°
2025-09-08 02:52 28.41450 -97.91820 37130 ft 507 kts 55°
2025-09-08 02:55 28.57253 -97.60540 37110 ft 504 kts 51°
2025-09-08 02:57 28.60643 -97.54721 37122 ft 503 kts 50°
2025-09-08 03:01 28.75872 -97.28969 35894 ft 491 kts 50°
2025-09-08 03:03 28.88805 -97.06831 32613 ft 467 kts 51°
2025-09-08 03:04 29.01018 -96.85825 29459 ft 447 kts 53°
2025-09-08 03:07 29.17199 -96.61549 25463 ft 412 kts 37°
2025-09-08 03:07 29.21511 -96.57268 24585 ft 409 kts 37°
2025-09-08 03:08 29.25692 -96.53077 23654 ft 392 kts 38°
2025-09-08 03:08 29.29728 -96.49003 22772 ft 387 kts 38°
2025-09-08 03:09 29.35724 -96.42936 21508 ft 381 kts 39°
2025-09-08 03:09 29.37698 -96.40934 21095 ft 378 kts 39°
2025-09-08 03:10 29.41625 -96.36951 20278 ft 376 kts 39°
2025-09-08 03:10 29.45529 -96.32982 19400 ft 369 kts 40°
2025-09-08 03:11 29.48824 -96.28675 18647 ft 356 kts 50°
2025-09-08 03:11 29.51806 -96.24152 17719 ft 351 kts 50°
2025-09-08 03:12 29.54747 -96.19724 16967 ft 347 kts 53°
2025-09-08 03:12 29.57113 -96.14916 16242 ft 345 kts 62°
2025-09-08 03:13 29.59327 -96.10054 15522 ft 341 kts 60°
2025-09-08 03:13 29.61571 -96.05311 14842 ft 336 kts 60°
2025-09-08 03:14 29.63796 -96.00619 14147 ft 333 kts 61°
2025-09-08 03:14 29.65948 -95.96073 13420 ft 329 kts 61°
2025-09-08 03:15 29.68094 -95.91535 12707 ft 311 kts 60°
2025-09-08 03:15 29.70138 -95.87208 12099 ft 306 kts 61°
2025-09-08 03:16 29.72152 -95.82943 11471 ft 301 kts 61°
2025-09-08 03:16 29.73135 -95.80858 11165 ft 299 kts 61°
2025-09-08 03:16 29.75110 -95.76667 10550 ft 297 kts 61°
2025-09-08 03:17 29.77980 -95.70569 9567 ft 282 kts 61°
2025-09-08 03:18 29.79824 -95.66646 8978 ft 277 kts 61°
2025-09-08 03:18 29.81651 -95.62754 8397 ft 273 kts 61°
2025-09-08 03:19 29.83444 -95.58932 7833 ft 270 kts 61°
2025-09-08 03:19 29.85225 -95.55128 7271 ft 270 kts 62°
2025-09-08 03:20 29.86997 -95.51323 6735 ft 268 kts 62°
2025-09-08 03:20 29.87873 -95.49442 6460 ft 265 kts 62°
2025-09-08 03:21 29.91114 -95.44819 5988 ft 231 kts 37°
2025-09-08 03:21 29.93672 -95.42622 6021 ft 230 kts 37°
2025-09-08 03:22 29.96283 -95.40358 5985 ft 232 kts 38°
2025-09-08 03:22 29.98806 -95.38163 6019 ft 227 kts 38°
2025-09-08 03:22 30.00077 -95.37053 5994 ft 235 kts 38°
2025-09-08 03:23 30.03941 -95.33675 5973 ft 227 kts 38°
2025-09-08 03:24 30.06450 -95.31479 5997 ft 228 kts 38°
2025-09-08 03:24 30.08854 -95.29117 5976 ft 225 kts 62°
2025-09-08 03:25 30.09310 -95.23801 5575 ft 219 kts 90°
2025-09-08 03:25 30.09483 -95.20407 4893 ft 205 kts 82°
2025-09-08 03:26 30.09838 -95.17291 4556 ft 188 kts 82°
2025-09-08 03:26 30.09994 -95.15814 4278 ft 183 kts 89°
2025-09-08 03:27 30.08463 -95.13683 3478 ft 195 kts 169°
2025-09-08 03:27 30.05769 -95.13713 3320 ft 204 kts 177°
2025-09-08 03:28 30.03027 -95.14478 3075 ft 206 kts 216°
2025-09-08 03:28 30.01421 -95.17202 2685 ft 209 kts 252°
2025-09-08 03:29 30.00724 -95.21902 1936 ft 179 kts 271°
2025-09-08 03:29 30.00715 -95.24589 1520 ft 166 kts 273°
2025-09-08 03:30 30.00716 -95.28489 890 ft 157 kts 272°
2025-09-08 03:31 30.00715 -95.30972 505 ft 154 kts 270°
2025-09-08 03:31 30.00712 -95.32207 310 ft 155 kts 271°
2025-09-08 03:32 30.00722 -95.35248 111 ft 41 kts 270°
2025-09-08 03:32 30.00527 -95.35639 109 ft 24 kts 202°
2025-09-08 03:33 30.00202 -95.35614 109 ft 24 kts 149°
2025-09-08 03:33 29.99900 -95.35485 111 ft 24 kts 180°
2025-09-08 03:34 29.99292 -95.35484 111 ft 19 kts 180°
2025-09-08 03:35 29.99174 -95.35331 109 ft 15 kts 91°
2025-09-08 03:35 29.99176 -95.35077 112 ft 21 kts 90°
2025-09-08 03:36 29.99177 -95.34222 112 ft 27 kts 90°
2025-09-08 03:37 29.99178 -95.33826 112 ft 18 kts 90°
2025-09-08 03:37 29.99092 -95.33665 111 ft 12 kts 148°
2025-09-08 03:38 29.98923 -95.33587 111 ft 15 kts 102°
2025-09-08 03:38 29.98920 -95.33346 112 ft 15 kts 90°
2025-09-08 03:39 29.98874 -95.33186 110 ft 0 kts 168°
2025-09-08 03:39 29.98844 -95.33184 110 ft 2 kts 181°